Location: Athabasca
(54.7194°N, 113.2858°W)
Time: 12:39:51
(UTC+00:00)

RS-44 - Visible Passes

Search period start: 01 December 2023 00:00
Search period end: 11 December 2023 00:00
Orbit: 1174 x 1510 km, 82.5° (Epoch: 30 November)

Date Brightness Start Highest point End Pass type
(mag) Time Alt. Az. Time Alt. Az. Time Alt. Az.
01 Dec ? 03:53:15 10° N 03:54:57 15° N 03:54:57 15° N visible
01 Dec ? 05:46:27 10° NNW 05:47:32 15° N 05:47:32 15° N visible
02 Dec ? 02:25:05 10° NNE 02:25:56 11° NNE 02:25:56 11° NNE visible
02 Dec ? 04:16:53 10° N 04:18:31 16° N 04:18:31 16° N visible
02 Dec ? 06:10:19 10° NNW 06:11:06 14° NNW 06:11:06 14° NNW visible
03 Dec ? 02:47:59 10° N 02:49:31 13° NNE 02:49:31 13° NNE visible
03 Dec ? 04:40:35 10° N 04:42:06 17° N 04:42:06 17° N visible
03 Dec ? 06:34:17 10° NNW 06:34:41 12° NNW 06:34:41 12° NNW visible
04 Dec ? 03:11:23 10° N 03:13:07 15° NNE 03:13:07 15° NNE visible
04 Dec ? 05:04:20 10° N 05:05:41 16° N 05:05:41 16° N visible
05 Dec ? 03:34:55 10° N 03:36:42 16° N 03:36:42 16° N visible
05 Dec ? 05:28:10 10° NNW 05:29:17 15° NNW 05:29:17 15° NNW visible
06 Dec ? 02:06:36 10° NNE 02:07:42 11° NNE 02:07:42 11° NNE visible
06 Dec ? 03:58:34 10° N 04:00:18 17° N 04:00:18 17° N visible
06 Dec ? 05:52:03 10° NNW 05:52:53 14° NNW 05:52:53 14° NNW visible
07 Dec ? 02:29:37 10° N 02:31:18 13° NNE 02:31:18 13° NNE visible
07 Dec ? 04:22:17 10° N 04:23:54 17° N 04:23:54 17° N visible
07 Dec ? 06:16:02 10° NNW 06:16:29 12° NNW 06:16:29 12° NNW visible
08 Dec ? 02:53:02 10° N 02:54:56 15° NNE 02:54:56 15° NNE visible
08 Dec ? 04:46:02 10° N 04:47:31 17° N 04:47:31 17° N visible
09 Dec ? 03:16:35 10° N 03:18:33 17° N 03:18:33 17° N visible
09 Dec ? 05:09:51 10° NNW 05:11:08 16° NNW 05:11:08 16° NNW visible
10 Dec ? 01:48:06 10° NNE 01:49:36 12° NNE 01:49:36 12° NNE visible
10 Dec ? 03:40:13 10° N 03:42:11 18° N 03:42:11 18° N visible
10 Dec ? 05:33:46 10° NNW 05:34:46 15° NNW 05:34:46 15° NNW visible
